Regional Weather Roundup
Issued by NWS

Home | Current Version | Previous Version | Graphics & Text | Print | Product List | Glossary On
Versions: 1 2 3 4 5 6 7 8 9 10 11 12 13 14 15 16 17 18 19 20 21 22 23 24 25 26 27 28 29 30 31 32 33 34 35 36 37 38 39 40 41 42 43 44 45 46 47 48 49 50
000
ASUS43 KBIS 252359
RWRND

NORTH DAKOTA REGIONAL WEATHER ROUNDUP
NATIONAL WEATHER SERVICE BISMARCK ND
700 PM CDT SAT OCT 25 2014

NOTE: "FAIR" INDICATES FEW OR NO CLOUDS BELOW 12,000 FEET WITH NO
SIGNIFICANT WEATHER AND/OR OBSTRUCTIONS TO VISIBILITY.


NDZ001>003-009>011-017-260100-
NORTHWEST NORTH DAKOTA

CITY           SKY/WX    TMP DP  RH WIND       PRES   REMARKS
WILLISTON      CLEAR     57  31  37 SE8       29.92F
6HR MIN TEMP:  57; 6HR MAX TEMP:  64;

MINOT          CLEAR     52  27  38 SE6       29.98F
$$

NDZ018>021-031>035-040>046-260100-
SOUTHWEST NORTH DAKOTA

CITY           SKY/WX    TMP DP  RH WIND       PRES   REMARKS
BISMARCK       CLEAR     49  29  46 E7        30.02F
6HR MIN TEMP:  49; 6HR MAX TEMP:  65;

GARRISON         N/A     50  32  50 SE7       29.99F
6HR MIN TEMP:  50; 6HR MAX TEMP:  61;

HETTINGER ARPT CLEAR     57  31  37 SE10      29.96F
$$

NDZ004>008-012>016-024-026-027-054-260100-
NORTHEAST NORTH DAKOTA

CITY           SKY/WX    TMP DP  RH WIND       PRES   REMARKS
GRAND FORKS    CLEAR     49  26  41 W7        30.02F
DEVILS LAKE    CLEAR     52  30  43 W6        30.01F
$$

NDZ022-023-025-028>030-036>039-047>053-260100-
SOUTHEAST NORTH DAKOTA

CITY           SKY/WX    TMP DP  RH WIND       PRES   REMARKS
FARGO          CLEAR     51  23  33 CALM      30.05F
6HR MIN TEMP:  49; 6HR MAX TEMP:  62;

$$




USA.gov is the U.S. government's official web portal to all federal, state and local government web resources and services.